Regional Weather Roundup
Issued by NWS Burlington, VT

Home | Current Version | Previous Version | Text Only | Print | Product List | Glossary On
Versions: 1 2 3 4 5 6 7 8 9 10 11 12 13 14 15 16 17 18 19 20 21 22 23 24 25 26 27 28 29 30 31 32 33 34 35 36 37 38 39 40 41 42 43 44 45 46 47 48 49 50
000
ASUS41 KBTV 200130
RWRBTV
VERMONT REGIONAL WEATHER ROUNDUP
NATIONAL WEATHER SERVICE BURLINGTON VT
900 PM EDT FRI SEP 19 2014

NOTE: "FAIR" INDICATES FEW OR NO CLOUDS BELOW 12,000 FEET WITH NO
SIGNIFICANT WEATHER AND/OR OBSTRUCTIONS TO VISIBILITY.

* THESE REPORTS ARE NOT UNDER NWS QUALITY CONTROL AND/OR DO NOT
  REPORT WEATHER SUCH AS PRECIPITATION AND FOG.

VTZ001>019-200200-
_____VERMONT_____


CITY           SKY/WX    TMP DP  RH WIND       PRES   REMARKS
BURLINGTON     CLEAR     48  36  63 SE7       30.30F
MONTPELIER     CLEAR     41  32  70 S5        30.36F
MORRISVILLE    CLEAR     39  33  79 CALM      30.33S
ST. JOHNSBURY*   N/A     42  38  85 MISG      30.33S
MIDDLEBURY*    FAIR      48  36  61 S3        30.32S
RUTLAND*       CLEAR     45  36  70 SE13      30.34S
SPRINGFIELD    CLEAR     41  38  89 CALM      30.38R
HIGHGATE*      FAIR      43  37  78 SE7       30.25F
NEWPORT*       FAIR      41  32  70 S5        30.30F
BENNINGTON     CLEAR     50  35  56 E8        30.34F
SUTTON*          N/A     43 N/A N/A MISG        N/A
GALLUP MILLS*    N/A     34 N/A N/A MISG        N/A
UNION VILLAGE*   N/A     41 N/A N/A MISG        N/A
MT. MANSFIELD*   N/A     37 N/A N/A S10         N/A

_____LAKE CHAMPLAIN_____


CITY           SKY/WX    TMP DP  RH WIND       PRES   REMARKS
BURTON ISLAND*   N/A     54  41  62 SE17        N/A
COLCHESTER RF*   N/A     55  41  58 S23         N/A
DIAMOND ISL*     N/A     52  37  58 SE16        N/A

$$

NYZ007-026>031-035-052-083-200200-
_____NORTHERN NEW YORK_____


CITY           SKY/WX    TMP DP  RH WIND       PRES   REMARKS
PLATTSBURGH    CLEAR     40  37  89 S3        30.27F
SARANAC LAKE   CLEAR     35  33  92 CALM      30.24F
MASSENA        PTCLDY    41  39  93 CALM      30.24F
OGDENSBURG*    CLEAR     39  37  93 CALM      30.20F
POTSDAM*       CLEAR     43  41  93 S5        30.22F
PARISHVILLE*     N/A     50 N/A N/A S13         N/A
WATERTOWN      PTCLDY    44  37  76 E5        30.21F
FT DRUM        PTCLDY    49  39  67 SE10      30.22F
ALBANY         CLEAR     54  39  57 SE3       30.33S
GLENS FALLS    CLEAR     42  39  89 CALM      30.33S

$$
NHZ002-005-011-200200-
_____NEW HAMPSHIRE_____


CITY           SKY/WX    TMP DP  RH WIND       PRES   REMARKS
LEBANON        CLEAR     40  34  79 CALM      30.36S
KEENE          CLEAR     41  32  70 CALM      30.40R
MT WASHINGTON  MOCLDY    34  14  44 SW20        N/A
PLYMOUTH       FAIR      36  36 100 CALM      30.39S
WHITEFIELD     PTCLDY    37  33  85 CALM      30.35S

$$

_____REGIONAL QUEBEC LOCATIONS_____


CITY           SKY/WX    TMP DP  RH WIND       PRES   REMARKS
MONTREAL       PTCLDY    50  36  57 SE10      30.23F
QUEBEC CITY    MOCLDY    43  37  81 N2        30.26F
SHERBROOKE     CLEAR     37  34  87 E5        30.29F

_____REGIONAL ONTARIO LOCATIONS_____


CITY           SKY/WX    TMP DP  RH WIND       PRES   REMARKS
OTTAWA         MOCLDY    43  34  70 SE8       30.20F

______KEY______
VSB  - VISIBILITY IN MILES
WCI  - WIND CHILL INDEX
HX   - HEAT INDEX
$$



USA.gov is the U.S. government's official web portal to all federal, state and local government web resources and services.